�������l�o���
Date,Time,MP-1(��Sv/h),MP-2(��Sv/h),MP-3(��Sv/h),MP-4(��Sv/h),MP-5(��Sv/h),MP-6(��Sv/h),MP-7(��Sv/h),MP-8(��Sv/h),����,����(m/s),���J
2019/06/07,00:00,0.771,1.125,0.776,1.409,1.052,0.440,0.769,0.728,�k�k��,2.2,��
2019/06/07,00:10,0.772,1.124,0.776,1.411,1.052,0.441,0.771,0.728,�k�k��,2.0,��
2019/06/07,00:20,0.773,1.125,0.776,1.412,1.052,0.439,0.769,0.729,�k,2.5,��
2019/06/07,00:30,0.773,1.125,0.777,1.413,1.053,0.440,0.770,0.728,�k�k��,2.6,��
2019/06/07,00:40,0.772,1.126,0.776,1.412,1.051,0.440,0.769,0.727,�k�k��,2.6,��
2019/06/07,00:50,0.772,1.130,0.777,1.411,1.050,0.439,0.768,0.729,�k,2.3,��
2019/06/07,01:00,0.772,1.127,0.777,1.410,1.051,0.441,0.770,0.727,�k,2.8,��
2019/06/07,01:10,0.771,1.127,0.777,1.412,1.054,0.440,0.770,0.727,�k,2.8,��
2019/06/07,01:20,0.772,1.128,0.775,1.412,1.054,0.439,0.770,0.730,�k,2.6,��
2019/06/07,01:30,0.772,1.126,0.775,1.412,1.051,0.439,0.769,0.728,�k,2.3,��
2019/06/07,01:40,0.770,1.127,0.778,1.411,1.054,0.441,0.769,0.728,�k,2.6,��
2019/06/07,01:50,0.770,1.127,0.776,1.409,1.052,0.440,0.771,0.730,�k,2.2,��
2019/06/07,02:00,0.772,1.125,0.774,1.413,1.054,0.439,0.769,0.726,�k,2.5,��
2019/06/07,02:10,0.771,1.127,0.778,1.409,1.051,0.441,0.770,0.726,�k�k��,2.2,��
2019/06/07,02:20,0.771,1.124,0.777,1.409,1.050,0.439,0.769,0.730,�k�k��,2.3,��
2019/06/07,02:30,0.772,1.127,0.778,1.414,1.052,0.441,0.769,0.727,�k�k��,2.2,��
2019/06/07,02:40,0.770,1.124,0.777,1.411,1.051,0.440,0.770,0.727,�k�k��,2.0,��
2019/06/07,02:50,0.773,1.128,0.775,1.412,1.053,0.440,0.769,0.729,�k�k��,2.3,��
2019/06/07,03:00,0.773,1.122,0.775,1.410,1.051,0.440,0.770,0.728,�k�k��,3.1,��
2019/06/07,03:10,0.771,1.125,0.777,1.410,1.053,0.440,0.771,0.728,�k�k��,2.9,��
2019/06/07,03:20,0.772,1.125,0.777,1.410,1.050,0.441,0.769,0.727,�k�k��,2.3,��
2019/06/07,03:30,0.772,1.125,0.778,1.414,1.051,0.440,0.769,0.728,�k�k��,4.0,��
2019/06/07,03:40,0.773,1.126,0.776,1.408,1.051,0.438,0.769,0.727,�k,3.0,��
2019/06/07,03:50,0.771,1.125,0.776,1.412,1.052,0.440,0.768,0.727,�k�k��,3.4,��
2019/06/07,04:00,0.772,1.126,0.776,1.411,1.052,0.438,0.770,0.727,�k�k��,3.8,��
2019/06/07,04:10,0.772,1.125,0.777,1.408,1.052,0.439,0.768,0.727,�k�k��,3.0,��
2019/06/07,04:20,0.771,1.126,0.777,1.412,1.050,0.439,0.770,0.727,�k�k��,3.2,��
2019/06/07,04:30,0.771,1.127,0.776,1.411,1.053,0.439,0.769,0.727,�k�k��,3.5,��
2019/06/07,04:40,0.772,1.126,0.776,1.412,1.051,0.439,0.770,0.728,�k�k��,4.0,��
2019/06/07,04:50,0.772,1.125,0.778,1.410,1.050,0.437,0.768,0.726,�k�k��,3.3,�L
2019/06/07,05:00,0.773,1.127,0.777,1.411,1.050,0.439,0.769,0.730,�k�k��,3.3,�L
2019/06/07,05:10,0.772,1.123,0.777,1.412,1.050,0.440,0.767,0.728,�k�k��,4.0,�L
2019/06/07,05:20,0.772,1.127,0.777,1.411,1.050,0.437,0.770,0.727,�k�k��,3.8,�L
2019/06/07,05:30,0.770,1.124,0.778,1.409,1.052,0.440,0.769,0.727,�k�k��,3.9,�L
2019/06/07,05:40,0.772,1.122,0.775,1.411,1.052,0.438,0.769,0.727,�k,3.5,�L
2019/06/07,05:50,0.770,1.125,0.775,1.408,1.051,0.439,0.768,0.728,�k�k��,4.0,�L
2019/06/07,06:00,0.771,1.124,0.776,1.409,1.052,0.439,0.768,0.728,�k�k��,4.3,�L
2019/06/07,06:10,0.774,1.122,0.776,1.410,1.052,0.439,0.771,0.727,�k�k��,4.6,�L
2019/06/07,06:20,0.773,1.124,0.777,1.411,1.053,0.440,0.769,0.726,�k�k��,4.7,�L
2019/06/07,06:30,0.772,1.125,0.777,1.407,1.051,0.440,0.770,0.727,�k,4.2,�L
2019/06/07,06:40,0.771,1.124,0.775,1.408,1.051,0.440,0.770,0.729,�k�k��,4.0,�L
2019/06/07,06:50,0.770,1.123,0.778,1.409,1.052,0.440,0.766,0.728,�k,4.0,�L
2019/06/07,07:00,0.771,1.121,0.777,1.410,1.047,0.439,0.766,0.727,�k,3.4,�L
2019/06/07,07:10,0.772,1.119,0.775,1.407,1.046,0.438,0.767,0.727,�k,3.0,�L
2019/06/07,07:20,0.769,1.118,0.775,1.406,1.046,0.439,0.767,0.726,�k,2.8,�L
2019/06/07,07:30,0.769,1.119,0.775,1.406,1.047,0.438,0.766,0.724,�k,2.8,�L
2019/06/07,07:40,0.769,1.117,0.775,1.407,1.046,0.439,0.765,0.725,�k�k��,1.7,�L
2019/06/07,07:50,0.770,1.117,0.775,1.406,1.047,0.439,0.768,0.726,�k�k��,1.5,�L
2019/06/07,08:00,0.770,1.115,0.774,1.406,1.044,0.440,0.767,0.725,�k�k��,0.9,�L
2019/06/07,08:10,0.767,1.112,0.773,1.404,1.042,0.439,0.767,0.725,�k,0.9,�L
2019/06/07,08:20,0.766,1.108,0.772,1.402,1.038,0.438,0.765,0.725,�k,2.0,�L
2019/06/07,08:30,0.765,1.107,0.771,1.403,1.036,0.439,0.763,0.723,�k�k��,2.2,�L
2019/06/07,08:40,0.764,1.108,0.770,1.400,1.035,0.438,0.764,0.722,�k,1.7,�L
2019/06/07,08:50,0.764,1.106,0.770,1.399,1.035,0.436,0.764,0.720,�k,2.0,�L
2019/06/07,09:00,0.766,1.105,0.770,1.398,1.033,0.437,0.763,0.723,�k,2.2,�L
2019/06/07,09:10,0.765,1.105,0.768,1.398,1.033,0.438,0.764,0.721,�k,2.3,�L
2019/06/07,09:20,0.765,1.102,0.769,1.398,1.033,0.437,0.764,0.721,�k,2.0,�L
2019/06/07,09:30,0.764,1.102,0.768,1.398,1.031,0.438,0.765,0.721,�k,1.5,�L
2019/06/07,09:40,0.763,1.103,0.769,1.397,1.033,0.437,0.764,0.722,�k,1.5,�L
2019/06/07,09:50,0.763,1.104,0.769,1.397,1.035,0.439,0.764,0.723,�k�k��,1.2,�L
2019/06/07,10:00,0.764,1.103,0.769,1.398,1.034,0.436,0.764,0.723,�k,1.4,�L
2019/06/07,10:10,0.762,1.102,0.769,1.399,1.034,0.436,0.766,0.723,�k,1.2,�L
2019/06/07,10:20,0.764,1.105,0.769,1.396,1.035,0.439,0.765,0.725,�k,0.8,�L
2019/06/07,10:30,0.762,1.102,0.768,1.397,1.033,0.438,0.765,0.723,���k��,0.6,�L
2019/06/07,10:40,0.763,1.104,0.768,1.395,1.032,0.437,0.764,0.723,��,1.2,�L
2019/06/07,10:50,0.765,1.105,0.769,1.397,1.032,0.438,0.764,0.722,�쓌,1.2,�L
2019/06/07,11:00,0.763,1.105,0.771,1.396,1.032,0.437,0.765,0.721,��쓌,1.9,�L
2019/06/07,11:10,0.762,1.106,0.771,1.398,1.033,0.436,0.764,0.722,�쓌,1.2,�L
2019/06/07,11:20,0.763,1.102,0.770,1.397,1.031,0.437,0.766,0.724,���쓌,0.9,�L
2019/06/07,11:30,0.762,1.102,0.770,1.399,1.031,0.436,0.766,0.721,���k��,0.6,�L
2019/06/07,11:40,0.763,1.101,0.769,1.396,1.032,0.437,0.765,0.722,���k��,1.2,�L
2019/06/07,11:50,0.765,1.100,0.769,1.396,1.032,0.437,0.765,0.722,���k��,0.8,�L
2019/06/07,12:00,0.764,1.105,0.769,1.397,1.031,0.437,0.765,0.723,�k�k��,1.2,�L
2019/06/07,12:10,0.765,1.104,0.770,1.397,1.030,0.438,0.766,0.723,�k,2.3,�L
2019/06/07,12:20,0.764,1.102,0.770,1.396,1.032,0.439,0.765,0.720,�k�k��,2.0,�L
2019/06/07,12:30,0.763,1.104,0.771,1.399,1.031,0.438,0.765,0.721,�k�k��,1.4,�L
2019/06/07,12:40,0.766,1.108,0.772,1.397,1.032,0.439,0.764,0.722,�k�k��,2.3,�L
2019/06/07,12:50,0.764,1.105,0.771,1.397,1.031,0.440,0.766,0.722,-,CALM,�L
2019/06/07,13:00,0.765,1.107,0.772,1.398,1.031,0.440,0.766,0.722,���쐼,0.9,�L
2019/06/07,13:10,0.765,1.106,0.772,1.398,1.033,0.440,0.766,0.722,��쐼,0.6,�L
2019/06/07,13:20,0.766,1.105,0.770,1.398,1.032,0.440,0.765,0.724,�쓌,1.1,�L
2019/06/07,13:30,0.764,1.105,0.773,1.397,1.031,0.441,0.767,0.723,�쓌,1.2,�L
2019/06/07,13:40,0.764,1.103,0.769,1.399,1.029,0.441,0.766,0.723,���쓌,2.0,�L
2019/06/07,13:50,0.764,1.101,0.769,1.396,1.029,0.440,0.767,0.722,�쓌,2.0,�L
2019/06/07,14:00,0.763,1.103,0.773,1.396,1.029,0.439,0.766,0.724,���쓌,2.3,�L
2019/06/07,14:10,0.763,1.103,0.769,1.397,1.029,0.440,0.766,0.723,��,1.7,�L
2019/06/07,14:20,0.765,1.102,0.770,1.397,1.029,0.439,0.766,0.724,��쓌,1.5,�L
2019/06/07,14:30,0.765,1.103,0.770,1.395,1.029,0.441,0.766,0.723,��쓌,1.2,�L
2019/06/07,14:40,0.765,1.104,0.770,1.394,1.030,0.440,0.767,0.724,���쓌,2.0,�L
2019/06/07,14:50,0.763,1.103,0.770,1.394,1.031,0.440,0.768,0.723,���쓌,2.0,�L
2019/06/07,15:00,0.766,1.104,0.768,1.395,1.029,0.439,0.767,0.724,��,2.0,�L
2019/06/07,15:10,0.765,1.105,0.771,1.396,1.029,0.439,0.765,0.722,���k��,1.7,�L
2019/06/07,15:20,0.762,1.104,0.767,1.398,1.029,0.437,0.765,0.725,���k��,1.7,��
2019/06/07,15:30,0.760,1.102,0.766,1.393,1.031,0.438,0.767,0.724,���k��,1.9,��
2019/06/07,15:40,0.760,1.100,0.768,1.393,1.028,0.438,0.766,0.722,���쓌,1.5,��
2019/06/07,15:50,0.762,1.104,0.767,1.393,1.028,0.436,0.766,0.723,���쓌,1.2,��
2019/06/07,16:00,0.762,1.103,0.767,1.394,1.027,0.439,0.767,0.721,�쓌,1.5,��
2019/06/07,16:10,0.761,1.099,0.766,1.394,1.029,0.436,0.766,0.721,���쓌,1.1,�L
2019/06/07,16:20,0.761,1.099,0.769,1.393,1.028,0.438,0.766,0.724,���쓌,0.9,�L
2019/06/07,16:30,0.760,1.099,0.767,1.392,1.026,0.437,0.763,0.722,�쓌,1.7,�L
2019/06/07,16:40,0.760,1.100,0.766,1.394,1.029,0.437,0.767,0.721,��쐼,0.6,�L
2019/06/07,16:50,0.761,1.099,0.767,1.393,1.030,0.437,0.765,0.720,��,1.7,��
2019/06/07,17:00,0.759,1.100,0.766,1.394,1.028,0.437,0.764,0.720,��,1.2,�L
2019/06/07,17:10,0.760,1.102,0.767,1.394,1.029,0.439,0.764,0.723,��쐼,1.1,�L
2019/06/07,17:20,0.761,1.102,0.769,1.396,1.029,0.439,0.766,0.722,-,CALM,�L
2019/06/07,17:30,0.761,1.101,0.769,1.395,1.029,0.441,0.764,0.721,�k�k��,0.6,�L
2019/06/07,17:40,0.761,1.101,0.767,1.393,1.024,0.442,0.763,0.720,�k�k��,0.8,�L
2019/06/07,17:50,0.757,1.098,0.768,1.392,1.024,0.441,0.762,0.721,-,CALM,�L
2019/06/07,18:00,0.760,1.095,0.768,1.388,1.018,0.441,0.763,0.719,-,CALM,�L
2019/06/07,18:10,0.758,1.091,0.765,1.385,1.017,0.441,0.761,0.720,-,CALM,�L
2019/06/07,18:20,0.756,1.089,0.763,1.381,1.015,0.440,0.761,0.718,�쓌,1.7,�L
2019/06/07,18:30,0.756,1.088,0.765,1.378,1.012,0.440,0.760,0.718,��쓌,0.9,�L
2019/06/07,18:40,0.755,1.082,0.761,1.377,1.011,0.440,0.760,0.715,�k��,1.7,�L
2019/06/07,18:50,0.754,1.075,0.760,1.372,1.004,0.439,0.756,0.714,�k,3.3,�L
2019/06/07,19:00,0.750,1.065,0.753,1.358,0.996,0.437,0.754,0.711,�k��,3.8,�L
2019/06/07,19:10,0.747,1.062,0.754,1.352,0.997,0.438,0.753,0.712,��쓌,4.6,�L
2019/06/07,19:20,0.745,1.059,0.752,1.347,0.994,0.438,0.752,0.711,-,CALM,�L
2019/06/07,19:30,0.744,1.055,0.752,1.345,0.991,0.438,0.750,0.711,��,7.3,�L
2019/06/07,19:40,0.744,1.054,0.751,1.340,0.991,0.437,0.753,0.710,���k��,0.9,�L
2019/06/07,19:50,0.746,1.054,0.754,1.341,0.994,0.440,0.751,0.711,�k,2.3,�L
2019/06/07,20:00,0.748,1.056,0.755,1.339,0.992,0.440,0.753,0.711,�k,2.3,�L
2019/06/07,20:10,0.747,1.056,0.753,1.338,0.993,0.439,0.750,0.711,�k�k��,3.8,�L
2019/06/07,20:20,0.748,1.058,0.751,1.337,0.992,0.440,0.751,0.711,�k,3.2,�L
2019/06/07,20:30,0.746,1.057,0.750,1.340,0.993,0.439,0.750,0.712,�k�k��,2.3,�L
2019/06/07,20:40,0.747,1.057,0.747,1.340,0.991,0.439,0.751,0.712,�k,2.2,�L
2019/06/07,20:50,0.747,1.056,0.746,1.338,0.990,0.439,0.751,0.710,�k,3.3,�L
2019/06/07,21:00,0.746,1.057,0.745,1.338,0.990,0.437,0.750,0.710,�k,3.2,�L
2019/06/07,21:10,0.743,1.054,0.744,1.335,0.986,0.437,0.750,0.709,�k,3.6,�L
2019/06/07,21:20,0.745,1.049,0.741,1.333,0.986,0.436,0.751,0.708,�k,4.4,�L
2019/06/07,21:30,0.740,1.050,0.741,1.333,0.981,0.435,0.747,0.709,�k,3.8,�L
2019/06/07,21:40,0.742,1.049,0.740,1.332,0.984,0.435,0.747,0.708,�k�k��,4.1,�L
2019/06/07,21:50,0.739,1.049,0.739,1.330,0.983,0.434,0.747,0.708,�k�k��,3.3,�L
2019/06/07,22:00,0.740,1.048,0.739,1.330,0.983,0.434,0.748,0.710,�k,3.1,�L
2019/06/07,22:10,0.741,1.049,0.738,1.327,0.982,0.434,0.747,0.710,�k�k��,3.0,�L
2019/06/07,22:20,0.739,1.049,0.737,1.328,0.982,0.433,0.747,0.708,�k�k��,3.3,�L
2019/06/07,22:30,0.738,1.048,0.736,1.325,0.980,0.433,0.747,0.709,�k,3.8,�L
2019/06/07,22:40,0.738,1.045,0.736,1.325,0.979,0.431,0.746,0.708,�k�k��,4.8,�L
2019/06/07,22:50,0.737,1.044,0.734,1.323,0.977,0.432,0.749,0.706,�k�k��,5.1,�L
2019/06/07,23:00,0.735,1.044,0.734,1.323,0.977,0.432,0.745,0.708,�k��,5.9,�L
2019/06/07,23:10,0.733,1.042,0.733,1.323,0.977,0.431,0.747,0.708,�k�k��,6.5,�L
2019/06/07,23:20,0.735,1.040,0.734,1.320,0.975,0.430,0.747,0.707,�k�k��,7.3,�L
2019/06/07,23:30,0.733,1.041,0.733,1.321,0.975,0.430,0.745,0.707,�k�k��,7.0,�L
2019/06/07,23:40,0.732,1.042,0.731,1.319,0.976,0.429,0.745,0.706,�k�k��,7.9,�L
2019/06/07,23:50,0.732,1.040,0.732,1.319,0.975,0.429,0.745,0.707,�k�k��,7.6,�L
